Location: Zagreb
(45.8000°N, 16.0000°E)
Time: 13:58:25
(UTC+02:00)

Vanguard 1 - Pass Details

Date: 16 August 2022
Orbit: 649 x 3832 km, 34.2° (Epoch: 25 September)

Event Time Altitude Azimuth Distance (km) Brightness Sun altitude
Rises 03:04:43 0° 215° (SW) 4,844 - -24.1°
Reaches altitude 10° 03:07:44 10° 207° (SSW) 4,219 - -23.9°
Exits shadow 03:12:26 26° 186° (S) 3,594 12.4 -23.4°
Maximum altitude 03:18:36 37° 145° (SE) 3,637 12.7 -22.8°
Drops below altitude 10° 03:35:48 10° 88° (E) 6,629 14.8 -20.9°
Sets 03:42:05 0° 82° (E) 7,883 15.5 -20.2°
